Location: M?digepalle
(16.1753°N, 80.3496°E)
Time: 09:12:38
(UTC+00:00)

Orbus 7S - Pass Details

Date: 29 October 2020
Orbit: 364 x 11853 km, 27.2° (Epoch: 27 November)

Event Time Altitude Azimuth Distance (km) Brightness Sun altitude
Rises 13:29:45 0° 266° (W) 2,182 8.0 -19.7°
Reaches altitude 10° 13:31:30 10° 277° (W) 1,367 6.4 -20.1°
Maximum altitude 13:33:58 36° 348° (NNW) 738 3.9 -20.7°
Enters shadow 13:34:13 36° 0° (N) 768 3.9 -20.7°
